Location: Newark
(35.0033°N, 81.0878°W)
Time: 09:56:55
(UTC+00:00)

CAS-4B - Visible Passes

Search period start: 19 October 2019 00:00
Search period end: 29 October 2019 00:00
Orbit: 528 x 546 km, 43.0° (Epoch: 19 October)

Date Brightness Start Highest point End Pass type
(mag) Time Alt. Az. Time Alt. Az. Time Alt. Az.
19 Oct ? 23:48:26 10° SSW 23:52:00 29° SE 23:53:17 24° ESE visible
20 Oct ? 01:27:58 10° WSW 01:28:40 14° W 01:28:40 14° W visible
20 Oct ? 23:38:01 10° SSW 23:41:49 38° SE 23:44:01 21° E visible
21 Oct ? 01:17:58 10° W 01:19:24 20° W 01:19:24 20° W visible
21 Oct ? 23:27:41 10° SW 23:31:38 50° SSE 23:34:39 16° ENE visible
22 Oct ? 01:08:00 10° W 01:10:01 25° WNW 01:10:01 25° WNW visible
22 Oct ? 23:17:27 10° SW 23:21:30 66° SSE 23:25:11 12° ENE visible
23 Oct ? 00:58:04 10° W 01:00:33 28° NW 01:00:33 28° NW visible
23 Oct ? 23:07:16 10° WSW 23:11:21 84° SSE 23:15:28 10° ENE visible
24 Oct ? 00:48:07 10° WNW 00:51:01 29° NW 00:51:01 29° NW visible
24 Oct ? 22:57:10 10° WSW 23:01:14 77° NNW 23:05:21 10° ENE visible
25 Oct ? 00:38:11 10° WNW 00:41:25 28° NNW 00:41:25 28° NNW visible
26 Oct ? 00:28:15 10° WNW 00:31:47 27° N 00:31:47 27° N visible
27 Oct ? 00:18:18 10° WNW 00:21:47 26° N 00:22:06 26° N visible
28 Oct ? 00:08:20 10° WNW 00:11:47 26° N 00:12:25 25° NNE visible
